Location: Caltech
(34.1382°N, 118.1253°W)
Time: 13:22:59
(UTC-07:00)

ITAMSAT 1 - Visible Passes

Search period start: 29 September 2016 00:00
Search period end: 09 October 2016 00:00
Orbit: 784 x 797 km, 98.8° (Epoch: 29 September)

Date Brightness Start Highest point End Pass type
(mag) Time Alt. Az. Time Alt. Az. Time Alt. Az.
29 Sep 9.4 03:59:26 10° NNE 04:01:34 25° NNE 04:01:34 25° NNE visible
30 Sep 10.0 03:30:19 10° NNE 03:31:46 18° NNE 03:31:46 18° NNE visible
30 Sep 9.5 05:10:52 10° NNW 05:12:29 15° NW 05:12:29 15° NW visible
01 Oct 10.6 03:01:44 10° NE 03:01:57 11° NE 03:01:57 11° NE visible
01 Oct 9.3 04:40:38 10° N 04:42:41 22° NNW 04:42:41 22° NNW visible
02 Oct 9.4 04:10:57 10° N 04:12:53 23° N 04:12:53 23° N visible
03 Oct 9.9 03:41:40 10° NNE 03:43:05 19° NNE 03:43:05 19° NNE visible
03 Oct 9.7 05:23:00 10° NNW 05:23:49 12° NW 05:23:49 12° NW visible
04 Oct 10.5 03:12:51 10° NE 03:13:16 12° NE 03:13:16 12° NE visible
04 Oct 9.5 04:52:23 10° NNW 04:54:00 18° NNW 04:54:00 18° NNW visible
05 Oct 9.5 04:22:32 10° N 04:24:11 20° N 04:24:11 20° N visible
06 Oct 9.9 03:53:06 10° NNE 03:54:23 18° NNE 03:54:23 18° NNE visible
07 Oct 10.4 03:24:05 10° NNE 03:24:34 12° NNE 03:24:34 12° NNE visible
07 Oct 9.7 05:04:14 10° NNW 05:05:18 14° NNW 05:05:18 14° NNW visible
08 Oct 9.6 04:34:10 10° N 04:35:29 17° N 04:35:29 17° N visible
